#timestamp,LO_Frequency,Hit,StdDev 
1514008815.1,286047000.0,N
1514008835.9,286047000.0,N
1514008855.7,286047002.3,N
1514008875.6,286047002.3,N
1514008895.4,286047000.4,N
1514008915.2,286046999.9,N
1514008935.1,286046998.4,N
1514008936.0,286046998.4,N
1514008955.8,286047000.3,N
1514008975.7,286047000.9,N
1514008995.5,286047002.7,N
1514009015.3,286047000.9,N
1514009035.2,286047002.4,N
1514009055.0,286047002.7,N
1514009055.9,286047002.7,N
1514009075.8,286046999.7,N
1514009095.5,286047000.7,N
1514009115.3,286047000.6,N
1514009135.1,286047000.8,N
1514009155.9,286047000.6,N
1514009175.7,286047001.0,N
1514009195.5,286047000.0,N
1514009215.4,286047000.3,N
1514009235.2,286046998.1,N
1514009255.1,286047000.8,N
1514009256.0,286047000.8,N
1514009275.8,286046999.9,N
1514009295.6,286047002.8,N
1514009315.5,286047001.2,N
1514009335.3,286046998.7,N
1514009355.2,286046999.2,N
1514009375.9,286047000.4,N
1514009395.7,286047000.7,N
1514009415.6,286047000.8,N
1514009435.4,286047000.9,N
1514009455.2,286047000.2,N
1514009475.1,286046999.7,N
1514009476.0,286046999.7,N
1514009495.8,286047001.5,N
1514009515.7,286047002.2,N
1514009535.5,286047001.5,N
1514009555.3,286046999.7,N
1514009575.2,286047000.0,N
1514009595.0,286046999.9,N
1514009595.9,286046999.9,N
1514009615.8,286046999.9,N
1514009635.6,286047000.3,N
1514009655.4,286047002.8,N
1514009675.3,286047002.4,N
1514009695.1,286047004.1,Y
1514009715.9,286047002.6,P
1514009735.7,286046999.8,N
1514009755.5,286047001.2,N
1514009775.4,286046999.8,N
1514009795.2,286047002.4,N
1514009815.1,286047002.0,N
1514009816.0,286047002.0,N
1514009835.8,286047001.6,N
1514009855.6,286047000.0,N
1514009875.5,286047002.4,N
1514009895.3,286047000.4,N
1514009915.1,286047000.6,N
1514009935.9,286047000.4,N
1514009955.7,286046998.2,N
1514009975.6,286046998.7,N
1514009995.4,286046998.5,N
1514010015.2,286046996.6,N
1514010035.1,286046997.4,N
1514010036.0,286046997.4,N
1514010055.8,286046996.6,N
1514010075.7,286046996.8,N
1514010095.5,286046997.8,N
1514010115.3,286046997.9,N
1514010135.2,286046995.1,N
1514010155.0,286046995.6,N
1514010155.9,286046995.6,N
1514010175.8,286046998.0,N
1514010195.6,286046999.0,N
1514010215.4,286046998.1,N
1514010235.3,286047001.2,N
1514010255.1,286047000.4,N
1514010275.8,286047000.6,N
1514010295.7,286047001.0,N
1514010315.5,286047000.4,N
1514010335.4,286046998.1,N
1514010355.2,286047000.3,N
1514010375.0,286047000.9,N
1514010375.9,286047000.9,N
1514010395.8,286047000.6,N
1514010415.6,286047000.7,N
1514010435.4,286047000.1,N
1514010455.3,286047002.4,N
1514010475.1,286046999.9,N
1514010495.9,286047000.7,N
1514010515.7,286046999.3,N
1514010535.5,286046999.1,N
1514010555.4,286046996.9,N
1514010575.2,286046999.2,N
1514010595.0,286046998.3,N
1514010595.9,286046998.3,N
1514010615.8,286047000.6,N
1514010635.6,286047000.0,N
1514010655.5,286046998.6,N
1514010675.3,286046998.8,N
1514010695.1,286046997.2,N
1514010715.9,286046998.8,N
1514010735.7,286046999.3,N
1514010755.5,286047000.8,N
1514010775.4,286047001.2,N
1514010795.2,286046998.9,N
1514010815.1,286046998.4,N
1514010816.0,286046998.4,N
1514010835.8,286046999.6,N
1514010855.6,286046998.5,N
1514010875.5,286046999.0,N
1514010895.3,286047000.8,N
1514010915.1,286046999.7,N
1514010935.9,286047002.4,N
1514010955.7,286047002.7,N
1514010975.6,286046999.7,N
1514010995.4,286047000.3,N
1514011015.2,286046999.8,N
1514011035.1,286047002.7,N
1514011036.0,286047002.7,N
1514011055.8,286047002.0,N
1514011075.7,286047002.2,N
1514011095.5,286047000.2,N
1514011115.3,286046999.7,N
1514011135.2,286046999.7,N
1514011155.0,286047002.3,N
1514011155.9,286047002.3,N
1514011175.8,286047000.2,N
1514011195.6,286047000.2,N
1514011215.4,286047000.4,N
1514011235.3,286046998.2,N
1514011255.1,286046999.4,N
1514011275.8,286046999.3,N
1514011295.7,286046999.3,N
1514011315.5,286046998.1,N
1514011335.4,286047000.7,N
1514011355.2,286047000.4,N
1514011375.0,286047000.9,N
1514011375.9,286047000.9,N
1514011395.8,286047001.1,N
1514011415.6,286047001.1,N
1514011435.4,286046998.2,N
1514011455.3,286046998.4,N
1514011475.1,286046998.8,N
1514011495.9,286046997.0,N
1514011515.7,286046996.8,N
1514011535.5,286046997.7,N
1514011555.4,286046997.1,N
1514011575.2,286046999.6,N
1514011595.1,286046996.7,N
1514011596.0,286046996.7,N
1514011615.8,286046999.3,N
1514011635.6,286046996.5,N
1514011655.5,286046998.4,N
1514011675.3,286046998.9,N
1514011695.1,286046998.8,N
1514011715.9,286046998.5,N
1514011735.7,286046998.4,N
1514011755.6,286046999.1,N
1514011775.4,286046999.5,N
1514011795.2,286046998.6,N
1514011815.1,286047000.3,N
1514011816.0,286047000.3,N
1514011835.8,286047000.6,N
1514011855.6,286047000.4,N
1514011875.5,286047001.0,N
1514011895.3,286046999.5,N
1514011915.2,286046998.3,N
1514011935.9,286047001.0,N
1514011955.7,286047000.8,N
1514011975.6,286047001.1,N
1514011995.4,286046998.6,N
1514012015.2,286046998.3,N
1514012035.1,286046997.7,N
1514012036.0,286046997.7,N
1514012055.8,286046997.5,N
1514012075.7,286046999.4,N
1514012095.5,286046999.7,N
1514012115.3,286047000.1,N
1514012135.2,286046998.5,N
1514012155.0,286046996.7,N
1514012155.9,286046996.7,N
1514012175.8,286046998.8,N
1514012195.6,286046998.4,N
1514012215.4,286046999.4,N
1514012235.3,286046998.8,N
1514012255.1,286047000.5,N
1514012275.9,286047002.2,N
1514012295.7,286047002.3,N
1514012315.5,286047002.4,N
1514012335.4,286047001.0,N
1514012355.2,286046998.8,N
1514012375.0,286046996.8,N
1514012375.9,286046996.8,N
1514012395.8,286046999.1,N
